When you browse on this site, cookies collect data to enhance your experience and personalize the content and advertising you see.
Visit our Privacy Policy to learn more. By continuing to use the site, you agree to this use of cookies and data.
  • In Spain
  • List of Countries
  • For 7 days
  • Water Temperature
  • Satellite Maps
  • Weather Map
  • Weather Widgets
  • user-avatar
    Login

    Hourly Weather Sopki

    Today, 17 February, Sunday

    Time Temperature Precipitation Wind Pressure Humidity
    00:00 -2°C° 0 mm 6 mps 734 mmHg 83%
    01:00 -2°C° 0 mm 6 mps 733 mmHg 84%
    02:00 -2°C° 0 mm 6 mps 733 mmHg 86%
    03:00 -2°C° 0 mm 6 mps 733 mmHg 87%
    04:00 -2°C° 0 mm 6 mps 733 mmHg 88%
    05:00 -2°C° 0 mm 6 mps 732 mmHg 89%
    06:00 -3°C° 0 mm 6 mps 733 mmHg 89%
    07:00 -4°C° 0 mm 6 mps 733 mmHg 88%
    08:00 -5°C° 0 mm 6 mps 733 mmHg 88%
    09:00 -4°C° 0 mm 6 mps 733 mmHg 86%
    10:00 -4°C° 0 mm 7 mps 733 mmHg 83%
    11:00 -4°C° 0 mm 7 mps 733 mmHg 81%
    12:00 -4°C° 0.2 mm 7 mps 733 mmHg 80%
    13:00 -4°C° 0.2 mm 7 mps 734 mmHg 79%
    14:00 -5°C° 0.2 mm 8 mps 734 mmHg 78%
    15:00 -4°C° 0.1 mm 7 mps 735 mmHg 78%
    16:00 -4°C° 0.1 mm 7 mps 735 mmHg 78%
    17:00 -4°C° 0.1 mm 7 mps 736 mmHg 78%
    18:00 -6°C° 0.1 mm 7 mps 737 mmHg 79%
    19:00 -6°C° 0.1 mm 7 mps 737 mmHg 80%
    20:00 -6°C° 0.1 mm 7 mps 738 mmHg 81%
    21:00 -5°C° 0 mm 6 mps 739 mmHg 81%
    22:00 -6°C° 0 mm 6 mps 740 mmHg 82%
    23:00 -6°C° 0 mm 5 mps 741 mmHg 82%

    Tomorrow, 18 February, Monday

    Time Temperature Precipitation Wind Pressure Humidity
    00:00 -7°C° 0 mm 5 mps 742 mmHg 84%
    01:00 -8°C° 0 mm 5 mps 742 mmHg 86%
    02:00 -9°C° 0 mm 4 mps 743 mmHg 88%
    03:00 -9°C° 0 mm 4 mps 744 mmHg 89%
    04:00 -10°C° 0 mm 4 mps 745 mmHg 90%
    05:00 -10°C° 0 mm 3 mps 745 mmHg 91%
    06:00 -10°C° 0 mm 3 mps 746 mmHg 92%
    07:00 -12°C° 0 mm 3 mps 747 mmHg 93%
    08:00 -13°C° 0 mm 3 mps 747 mmHg 93%
    09:00 -10°C° 0 mm 2 mps 748 mmHg 91%
    10:00 -9°C° 0 mm 2 mps 748 mmHg 89%
    11:00 -7°C° 0 mm 2 mps 749 mmHg 86%
    12:00 -7°C° 0 mm 2 mps 749 mmHg 85%
    13:00 -6°C° 0 mm 2 mps 749 mmHg 83%
    14:00 -4°C° 0 mm 1 mps 749 mmHg 81%
    15:00 -6°C° 0 mm 1 mps 749 mmHg 84%
    16:00 -7°C° 0 mm 1 mps 749 mmHg 86%
    17:00 -8°C° 0 mm 1 mps 749 mmHg 88%
    18:00 -8°C° 0 mm 1 mps 749 mmHg 89%
    19:00 -9°C° 0 mm 2 mps 749 mmHg 89%
    20:00 -9°C° 0 mm 2 mps 748 mmHg 89%
    21:00 -9°C° 0 mm 3 mps 748 mmHg 87%
    22:00 -8°C° 0 mm 3 mps 747 mmHg 85%
    23:00 -9°C° 0 mm 4 mps 747 mmHg 83%

    Day after tomorrow, 19 February, Tuesday

    Time Temperature Precipitation Wind Pressure Humidity
    00:00 -8°C° 0 mm 4 mps 746 mmHg 81%
    01:00 -7°C° 0 mm 4 mps 746 mmHg 78%
    02:00 -6°C° 0 mm 5 mps 745 mmHg 76%
    03:00 -6°C° 0 mm 5 mps 744 mmHg 76%
    04:00 -6°C° 0 mm 5 mps 744 mmHg 76%
    05:00 -6°C° 0 mm 5 mps 743 mmHg 76%
    06:00 -6°C° 0 mm 5 mps 743 mmHg 79%
    07:00 -6°C° 0 mm 5 mps 742 mmHg 82%
    08:00 -6°C° 0 mm 5 mps 742 mmHg 85%
    09:00 -5°C° 0 mm 5 mps 742 mmHg 87%
    10:00 -4°C° 0 mm 5 mps 741 mmHg 88%
    11:00 -2°C° 0 mm 5 mps 741 mmHg 89%
    12:00 -2°C° 0 mm 5 mps 741 mmHg 89%
    13:00 -1°C° 0 mm 4 mps 740 mmHg 90%
    14:00 -1°C° 0 mm 4 mps 740 mmHg 91%
    15:00 -1°C° 0 mm 4 mps 739 mmHg 89%
    16:00 -1°C° 0 mm 4 mps 739 mmHg 88%
    17:00 -1°C° 0 mm 4 mps 738 mmHg 86%
    18:00 -2°C° 0 mm 4 mps 738 mmHg 86%
    19:00 -2°C° 0 mm 5 mps 737 mmHg 87%
    20:00 -2°C° 0 mm 5 mps 737 mmHg 87%
    21:00 -2°C° 0 mm 5 mps 736 mmHg 87%
    22:00 -2°C° 0 mm 5 mps 736 mmHg 88%
    23:00 -2°C° 0 mm 5 mps 735 mmHg 89%

    20 February, Wednesday

    Time Temperature Precipitation Wind Pressure Humidity
    00:00 -1°C° 0.1 mm 5 mps 735 mmHg 90%
    01:00 -1°C° 0.1 mm 5 mps 734 mmHg 90%
    02:00 -1°C° 0.1 mm 5 mps 734 mmHg 91%
    03:00 -1°C° 0.3 mm 4 mps 733 mmHg 92%
    04:00 -1°C° 0.3 mm 4 mps 732 mmHg 92%
    05:00 -1°C° 0.3 mm 4 mps 732 mmHg 93%
    06:00 -1°C° 0.5 mm 4 mps 732 mmHg 94%
    07:00 -1°C° 0.5 mm 4 mps 731 mmHg 94%
    08:00 0°C° 0.5 mm 3 mps 731 mmHg 95%
    09:00 0°C° 0.2 mm 3 mps 731 mmHg 96%
    10:00 0°C° 0.2 mm 3 mps 731 mmHg 97%
    11:00 0°C° 0.2 mm 3 mps 731 mmHg 99%
    12:00 0°C° 0 mm 3 mps 731 mmHg 99%
    13:00 0°C° 0 mm 3 mps 731 mmHg 98%
    14:00 -1°C° 0 mm 4 mps 731 mmHg 98%
    15:00 0°C° 0.2 mm 3 mps 731 mmHg 97%
    16:00 0°C° 0.2 mm 3 mps 731 mmHg 96%
    17:00 0°C° 0.2 mm 3 mps 730 mmHg 95%
    18:00 0°C° 0.2 mm 3 mps 730 mmHg 95%
    19:00 0°C° 0.2 mm 3 mps 730 mmHg 95%
    20:00 0°C° 0.2 mm 3 mps 730 mmHg 95%
    21:00 0°C° 0.1 mm 3 mps 730 mmHg 94%
    22:00 -1°C° 0.1 mm 3 mps 730 mmHg 94%
    23:00 -1°C° 0.1 mm 3 mps 731 mmHg 93%

    21 February, Thursday

    Time Temperature Precipitation Wind Pressure Humidity
    00:00 -3°C° 0.3 mm 4 mps 731 mmHg 92%
    01:00 -5°C° 0.3 mm 5 mps 732 mmHg 91%
    02:00 -7°C° 0.3 mm 5 mps 732 mmHg 90%
    03:00 -8°C° 0.1 mm 5 mps 733 mmHg 87%
    04:00 -10°C° 0.1 mm 5 mps 733 mmHg 85%
    05:00 -12°C° 0.1 mm 5 mps 734 mmHg 83%
    06:00 -12°C° 0.1 mm 5 mps 735 mmHg 84%
    07:00 -11°C° 0.1 mm 5 mps 735 mmHg 85%
    08:00 -11°C° 0.1 mm 5 mps 736 mmHg 86%
    09:00 -11°C° 0.1 mm 6 mps 737 mmHg 85%
    10:00 -11°C° 0.1 mm 6 mps 737 mmHg 84%
    11:00 -11°C° 0.1 mm 6 mps 738 mmHg 83%
    12:00 -11°C° 0.1 mm 6 mps 739 mmHg 82%
    13:00 -10°C° 0.1 mm 6 mps 740 mmHg 81%
    14:00 -10°C° 0.1 mm 6 mps 740 mmHg 80%
    15:00 -11°C° 0.1 mm 6 mps 741 mmHg 81%
    16:00 -11°C° 0.1 mm 6 mps 742 mmHg 82%
    17:00 -12°C° 0.1 mm 5 mps 743 mmHg 83%
    18:00 -12°C° 0 mm 5 mps 744 mmHg 84%
    19:00 -13°C° 0 mm 5 mps 744 mmHg 84%
    20:00 -14°C° 0 mm 5 mps 745 mmHg 85%
    21:00 -14°C° 0 mm 4 mps 746 mmHg 86%
    22:00 -14°C° 0 mm 4 mps 746 mmHg 86%
    23:00 -15°C° 0 mm 4 mps 747 mmHg 86%

    22 February, Friday

    Time Temperature Precipitation Wind Pressure Humidity
    00:00 -15°C° 0 mm 4 mps 747 mmHg 87%
    01:00 -16°C° 0 mm 4 mps 748 mmHg 87%
    02:00 -16°C° 0 mm 4 mps 749 mmHg 88%
    03:00 -17°C° 0 mm 4 mps 749 mmHg 88%
    04:00 -17°C° 0 mm 4 mps 750 mmHg 88%
    05:00 -18°C° 0 mm 4 mps 751 mmHg 88%
    06:00 -17°C° 0 mm 4 mps 752 mmHg 86%
    07:00 -17°C° 0 mm 4 mps 752 mmHg 85%
    08:00 -17°C° 0 mm 4 mps 753 mmHg 83%
    09:00 -15°C° 0 mm 4 mps 754 mmHg 82%
    10:00 -14°C° 0 mm 4 mps 755 mmHg 81%
    11:00 -11°C° 0 mm 4 mps 756 mmHg 80%
    12:00 -11°C° 0 mm 4 mps 756 mmHg 80%
    13:00 -10°C° 0 mm 4 mps 756 mmHg 79%
    14:00 -10°C° 0 mm 4 mps 757 mmHg 78%
    15:00 -10°C° 0 mm 3 mps 757 mmHg 81%
    16:00 -12°C° 0 mm 3 mps 758 mmHg 84%
    17:00 -13°C° 0 mm 3 mps 758 mmHg 87%
    18:00 -13°C° 0 mm 3 mps 759 mmHg 88%
    19:00 -13°C° 0 mm 2 mps 759 mmHg 90%
    20:00 -14°C° 0 mm 2 mps 759 mmHg 91%
    21:00 -14°C° 0 mm 2 mps 760 mmHg 92%
    22:00 -15°C° 0 mm 2 mps 760 mmHg 93%
    23:00 -15°C° 0 mm 2 mps 761 mmHg 93%
    Show more